When you browse on this site, cookies collect data to enhance your experience and personalize the content and advertising you see.
Visit our Privacy Policy to learn more. By continuing to use the site, you agree to this use of cookies and data.
  • In Hungary
  • List of Countries
  • For 7 days
  • Water Temperature
  • Satellite Maps
  • Weather Map
  • News
  • Weather Widgets
  • user-avatar
    Login

    Hourly Weather Kalanchak

    Today, 17 January, Thursday

    Time Temperature Precipitation Wind Pressure Humidity
    00:00 -4°C° 0 mm 6 mps 757 mmHg 91%
    01:00 -4°C° 0 mm 6 mps 758 mmHg 91%
    02:00 -5°C° 0 mm 6 mps 759 mmHg 91%
    03:00 -5°C° 0 mm 6 mps 759 mmHg 91%
    04:00 -5°C° 0 mm 5 mps 760 mmHg 90%
    05:00 -6°C° 0 mm 5 mps 761 mmHg 89%
    06:00 -6°C° 0 mm 5 mps 761 mmHg 88%
    07:00 -5°C° 0 mm 4 mps 762 mmHg 87%
    08:00 -5°C° 0 mm 3 mps 762 mmHg 86%
    09:00 -4°C° 0 mm 3 mps 763 mmHg 82%
    10:00 -2°C° 0 mm 2 mps 763 mmHg 78%
    11:00 +1°C° 0 mm 1 mps 763 mmHg 74%
    12:00 +1°C° 0 mm 1 mps 763 mmHg 73%
    13:00 +2°C° 0 mm 1 mps 763 mmHg 72%
    14:00 +2°C° 0 mm 1 mps 763 mmHg 71%
    15:00 +1°C° 0 mm 2 mps 763 mmHg 76%
    16:00 -1°C° 0 mm 3 mps 763 mmHg 81%
    17:00 -2°C° 0 mm 4 mps 764 mmHg 86%
    18:00 -2°C° 0 mm 4 mps 763 mmHg 85%
    19:00 -2°C° 0 mm 5 mps 763 mmHg 84%
    20:00 -2°C° 0 mm 5 mps 763 mmHg 83%
    21:00 -2°C° 0 mm 6 mps 763 mmHg 83%
    22:00 -2°C° 0 mm 6 mps 763 mmHg 82%
    23:00 -1°C° 0 mm 7 mps 763 mmHg 82%

    Tomorrow, 18 January, Friday

    Time Temperature Precipitation Wind Pressure Humidity
    00:00 -1°C° 0 mm 7 mps 763 mmHg 83%
    01:00 0°C° 0 mm 7 mps 763 mmHg 84%
    02:00 0°C° 0 mm 8 mps 762 mmHg 86%
    03:00 +1°C° 0 mm 8 mps 762 mmHg 87%
    04:00 +1°C° 0 mm 8 mps 762 mmHg 87%
    05:00 +1°C° 0 mm 8 mps 761 mmHg 88%
    06:00 +1°C° 0 mm 8 mps 762 mmHg 89%
    07:00 +2°C° 0 mm 8 mps 762 mmHg 90%
    08:00 +2°C° 0 mm 8 mps 762 mmHg 90%
    09:00 +2°C° 0 mm 8 mps 762 mmHg 89%
    10:00 +4°C° 0 mm 8 mps 762 mmHg 87%
    11:00 +5°C° 0 mm 8 mps 762 mmHg 85%
    12:00 +5°C° 0 mm 8 mps 762 mmHg 85%
    13:00 +6°C° 0 mm 8 mps 762 mmHg 84%
    14:00 +6°C° 0 mm 8 mps 762 mmHg 84%
    15:00 +5°C° 0 mm 7 mps 762 mmHg 86%
    16:00 +4°C° 0 mm 7 mps 762 mmHg 88%
    17:00 +4°C° 0 mm 7 mps 762 mmHg 91%
    18:00 +4°C° 0 mm 7 mps 761 mmHg 90%
    19:00 +4°C° 0 mm 7 mps 761 mmHg 89%
    20:00 +4°C° 0 mm 7 mps 761 mmHg 89%
    21:00 +4°C° 0 mm 7 mps 761 mmHg 87%
    22:00 +4°C° 0 mm 8 mps 761 mmHg 85%
    23:00 +4°C° 0 mm 8 mps 761 mmHg 83%

    Day after tomorrow, 19 January, Saturday

    Time Temperature Precipitation Wind Pressure Humidity
    00:00 +4°C° 0 mm 8 mps 761 mmHg 85%
    01:00 +4°C° 0 mm 7 mps 761 mmHg 86%
    02:00 +4°C° 0 mm 7 mps 761 mmHg 88%
    03:00 +3°C° 0 mm 6 mps 760 mmHg 90%
    04:00 +2°C° 0 mm 6 mps 760 mmHg 92%
    05:00 +2°C° 0 mm 5 mps 760 mmHg 94%
    06:00 +1°C° 0 mm 4 mps 761 mmHg 94%
    07:00 0°C° 0 mm 4 mps 762 mmHg 94%
    08:00 0°C° 0 mm 4 mps 762 mmHg 95%
    09:00 0°C° 0 mm 4 mps 763 mmHg 89%
    10:00 +1°C° 0 mm 5 mps 763 mmHg 83%
    11:00 +1°C° 0 mm 6 mps 763 mmHg 78%
    12:00 +2°C° 0 mm 6 mps 764 mmHg 75%
    13:00 +2°C° 0 mm 5 mps 764 mmHg 72%
    14:00 +2°C° 0 mm 5 mps 764 mmHg 69%
    15:00 +1°C° 0 mm 5 mps 765 mmHg 73%
    16:00 0°C° 0 mm 5 mps 765 mmHg 77%
    17:00 -1°C° 0 mm 5 mps 766 mmHg 81%
    18:00 -2°C° 0 mm 5 mps 766 mmHg 81%
    19:00 -2°C° 0 mm 5 mps 767 mmHg 81%
    20:00 -4°C° 0 mm 5 mps 767 mmHg 81%
    21:00 -3°C° 0 mm 4 mps 768 mmHg 81%
    22:00 -4°C° 0 mm 4 mps 768 mmHg 80%
    23:00 -4°C° 0 mm 4 mps 768 mmHg 79%

    20 January, Sunday

    Time Temperature Precipitation Wind Pressure Humidity
    00:00 -4°C° 0 mm 4 mps 768 mmHg 79%
    01:00 -4°C° 0 mm 4 mps 768 mmHg 79%
    02:00 -5°C° 0 mm 4 mps 768 mmHg 78%
    03:00 -5°C° 0 mm 4 mps 768 mmHg 79%
    04:00 -5°C° 0 mm 4 mps 768 mmHg 79%
    05:00 -5°C° 0 mm 4 mps 768 mmHg 80%
    06:00 -5°C° 0 mm 4 mps 768 mmHg 80%
    07:00 -6°C° 0 mm 5 mps 768 mmHg 80%
    08:00 -6°C° 0 mm 5 mps 768 mmHg 80%
    09:00 -5°C° 0 mm 5 mps 768 mmHg 76%
    10:00 -4°C° 0 mm 5 mps 768 mmHg 73%
    11:00 -2°C° 0 mm 5 mps 768 mmHg 70%
    12:00 -2°C° 0 mm 5 mps 767 mmHg 69%
    13:00 -1°C° 0 mm 5 mps 767 mmHg 69%
    14:00 -1°C° 0 mm 5 mps 766 mmHg 68%
    15:00 -1°C° 0 mm 5 mps 766 mmHg 73%
    16:00 -2°C° 0 mm 5 mps 766 mmHg 78%
    17:00 -4°C° 0 mm 5 mps 766 mmHg 82%
    18:00 -4°C° 0 mm 5 mps 765 mmHg 83%
    19:00 -4°C° 0 mm 6 mps 765 mmHg 85%
    20:00 -4°C° 0 mm 6 mps 765 mmHg 86%
    21:00 -3°C° 0.1 mm 6 mps 764 mmHg 87%
    22:00 -3°C° 0.1 mm 6 mps 764 mmHg 88%
    23:00 -3°C° 0.1 mm 6 mps 763 mmHg 89%

    21 January, Monday

    Time Temperature Precipitation Wind Pressure Humidity
    00:00 -2°C° 1 mm 5 mps 763 mmHg 90%
    01:00 -1°C° 1 mm 4 mps 762 mmHg 91%
    02:00 -1°C° 1 mm 4 mps 761 mmHg 92%
    03:00 0°C° 0.6 mm 4 mps 761 mmHg 93%
    04:00 0°C° 0.6 mm 4 mps 760 mmHg 93%
    05:00 +1°C° 0.6 mm 5 mps 759 mmHg 93%
    06:00 +1°C° 1.3 mm 6 mps 759 mmHg 94%
    07:00 +2°C° 1.3 mm 7 mps 759 mmHg 95%
    08:00 +3°C° 1.3 mm 7 mps 759 mmHg 95%
    09:00 +2°C° 0.1 mm 7 mps 759 mmHg 94%
    10:00 +2°C° 0.1 mm 7 mps 759 mmHg 94%
    11:00 +2°C° 0.1 mm 6 mps 759 mmHg 93%
    12:00 0°C° 0 mm 7 mps 759 mmHg 90%
    13:00 0°C° 0 mm 7 mps 760 mmHg 88%
    14:00 -1°C° 0 mm 7 mps 760 mmHg 85%
    15:00 -1°C° 0 mm 7 mps 761 mmHg 84%
    16:00 -2°C° 0 mm 7 mps 761 mmHg 82%
    17:00 -2°C° 0 mm 6 mps 762 mmHg 80%
    18:00 -3°C° 0 mm 6 mps 763 mmHg 79%
    19:00 -3°C° 0 mm 6 mps 763 mmHg 78%
    20:00 -3°C° 0 mm 6 mps 764 mmHg 76%
    21:00 -4°C° 0 mm 5 mps 765 mmHg 76%
    22:00 -4°C° 0 mm 5 mps 765 mmHg 76%
    23:00 -4°C° 0 mm 5 mps 766 mmHg 76%

    22 January, Tuesday

    Time Temperature Precipitation Wind Pressure Humidity
    00:00 -5°C° 0 mm 5 mps 766 mmHg 78%
    01:00 -6°C° 0 mm 5 mps 766 mmHg 80%
    02:00 -7°C° 0 mm 5 mps 767 mmHg 81%
    03:00 -7°C° 0 mm 5 mps 767 mmHg 80%
    04:00 -7°C° 0 mm 4 mps 767 mmHg 79%
    05:00 -8°C° 0 mm 4 mps 767 mmHg 78%
    06:00 -8°C° 0 mm 4 mps 768 mmHg 77%
    07:00 -8°C° 0 mm 4 mps 768 mmHg 76%
    08:00 -8°C° 0 mm 4 mps 768 mmHg 75%
    09:00 -7°C° 0 mm 4 mps 768 mmHg 70%
    10:00 -7°C° 0 mm 4 mps 768 mmHg 66%
    11:00 -5°C° 0 mm 4 mps 768 mmHg 61%
    12:00 -4°C° 0 mm 4 mps 768 mmHg 59%
    13:00 -4°C° 0 mm 4 mps 767 mmHg 57%
    14:00 -3°C° 0 mm 4 mps 767 mmHg 55%
    15:00 -5°C° 0 mm 5 mps 767 mmHg 60%
    16:00 -5°C° 0 mm 5 mps 767 mmHg 65%
    17:00 -6°C° 0 mm 5 mps 766 mmHg 69%
    18:00 -6°C° 0 mm 6 mps 766 mmHg 73%
    19:00 -6°C° 0 mm 6 mps 766 mmHg 77%
    20:00 -6°C° 0 mm 6 mps 765 mmHg 81%
    21:00 -6°C° 0 mm 6 mps 765 mmHg 82%
    22:00 -5°C° 0 mm 6 mps 764 mmHg 83%
    23:00 -5°C° 0 mm 6 mps 764 mmHg 84%
    Show more